| time (UTC) | temp F | wind direction | speed MPH | gust MPH | rain 1hr in | rain 24hr in | rain mn in | humidity % | barometer mb |
| 20260504050446 | 51 | 122 | 0.0 | 1.0 | 0.00 | 0.00 | 0.00 | 53 | 1005.8 |
| 20260504045946 | 51 | 48 | 0.0 | 2.0 | 0.00 | 0.00 | 0.00 | 54 | 1005.8 |
| 20260504045446 | 51 | 0 | 0.0 | 0.0 | 0.00 | 0.00 | 0.00 | 53 | 1005.8 |
| 20260504044946 | 52 | 113 | 0.0 | 1.0 | 0.00 | 0.00 | 0.00 | 52 | 1005.9 |
| 20260504044446 | 52 | 138 | 0.0 | 1.0 | 0.00 | 0.00 | 0.00 | 51 | 1005.9 |
| 20260504043946 | 52 | 158 | 0.0 | 1.0 | 0.00 | 0.00 | 0.00 | 50 | 1005.9 |
| 20260504043446 | 52 | 68 | 0.0 | 1.0 | 0.00 | 0.00 | 0.00 | 52 | 1006.0 |
| 20260504042947 | 52 | 22 | 0.0 | 1.0 | 0.00 | 0.00 | 0.00 | 51 | 1006.1 |
| 20260504042446 | 52 | 155 | 1.0 | 2.0 | 0.00 | 0.00 | 0.00 | 54 | 1006.2 |
| 20260504041946 | 52 | 59 | 0.0 | 1.0 | 0.00 | 0.00 | 0.00 | 52 | 1006.2 |
| 20260504041446 | 52 | 5 | 0.0 | 1.0 | 0.00 | 0.00 | 0.00 | 52 | 1006.3 |
| 20260504040947 | 53 | 176 | 0.0 | 1.0 | 0.00 | 0.00 | 0.00 | 54 | 1006.3 |
| 20260504040446 | 53 | 196 | 0.0 | 1.0 | 0.00 | 0.00 | 0.00 | 50 | 1006.3 |
| 20260504035946 | 53 | 192 | 0.0 | 1.0 | 0.00 | 0.00 | 0.00 | 50 | 1006.3 |
| 20260504035446 | 53 | 42 | 0.0 | 2.0 | 0.00 | 0.00 | 0.00 | 49 | 1006.4 |
| 20260504034946 | 53 | 176 | 1.0 | 1.0 | 0.00 | 0.00 | 0.00 | 53 | 1006.6 |
| 20260504034447 | 53 | 79 | 1.0 | 2.0 | 0.00 | 0.00 | 0.00 | 52 | 1006.6 |
| 20260504033946 | 55 | 105 | 1.0 | 2.0 | 0.00 | 0.00 | 0.00 | 52 | 1006.7 |
| 20260504033447 | 56 | 72 | 0.0 | 2.0 | 0.00 | 0.00 | 0.00 | 47 | 1006.7 |
| 20260504032946 | 57 | 92 | 1.0 | 2.0 | 0.00 | 0.00 | 0.00 | 47 | 1006.7 |
| 20260504032447 | 58 | 33 | 0.0 | 1.0 | 0.00 | 0.00 | 0.00 | 44 | 1006.9 |
| 20260504031947 | 60 | 78 | 1.0 | 2.0 | 0.00 | 0.00 | 0.00 | 43 | 1006.9 |
| 20260504031446 | 62 | 48 | 1.0 | 2.0 | 0.00 | 0.00 | 0.00 | 37 | 1006.9 |
| 20260504030948 | 61 | 331 | 2.0 | 4.0 | 0.00 | 0.00 | 0.00 | 35 | 1007.0 |
| 20260504030447 | 61 | 4 | 2.0 | 3.0 | 0.00 | 0.00 | 0.00 | 36 | 1007.0 |
| 20260504025946 | 61 | 0 | 1.0 | 2.0 | 0.00 | 0.00 | 0.00 | 37 | 1006.9 |
| 20260504025446 | 61 | 355 | 1.0 | 2.0 | 0.00 | 0.00 | 0.00 | 37 | 1006.9 |
| 20260504024946 | 61 | 26 | 2.0 | 3.0 | 0.00 | 0.00 | 0.00 | 37 | 1006.9 |
| 20260504024448 | 62 | 10 | 1.0 | 3.0 | 0.00 | 0.00 | 0.00 | 36 | 1006.7 |
| 20260504023947 | 61 | 339 | 2.0 | 3.0 | 0.00 | 0.00 | 0.00 | 36 | 1006.6 |
| 20260504023447 | 61 | 7 | 1.0 | 2.0 | 0.00 | 0.00 | 0.00 | 37 | 1006.6 |
| 20260504022946 | 61 | 19 | 1.0 | 2.0 | 0.00 | 0.00 | 0.00 | 36 | 1006.6 |
| 20260504022446 | 62 | 14 | 1.0 | 2.0 | 0.00 | 0.00 | 0.00 | 37 | 1006.6 |
| 20260504021946 | 62 | 35 | 2.0 | 3.0 | 0.00 | 0.00 | 0.00 | 37 | 1006.6 |
| 20260504021447 | 63 | 8 | 1.0 | 2.0 | 0.00 | 0.00 | 0.00 | 36 | 1006.6 |
| 20260504020947 | 63 | 334 | 2.0 | 3.0 | 0.00 | 0.00 | 0.00 | 35 | 1006.6 |
| 20260504020446 | 63 | 336 | 2.0 | 4.0 | 0.00 | 0.00 | 0.00 | 35 | 1006.5 |
| 20260504015947 | 63 | 313 | 3.0 | 4.0 | 0.00 | 0.00 | 0.00 | 34 | 1006.5 |
| 20260504015446 | 63 | 317 | 2.0 | 4.0 | 0.00 | 0.00 | 0.00 | 34 | 1006.4 |
| 20260504014946 | 63 | 343 | 2.0 | 4.0 | 0.00 | 0.00 | 0.00 | 34 | 1006.4 |
| 20260504014446 | 64 | 340 | 2.0 | 4.0 | 0.00 | 0.00 | 0.00 | 35 | 1006.4 |
| 20260504013946 | 64 | 319 | 2.0 | 4.0 | 0.00 | 0.00 | 0.00 | 34 | 1006.3 |
| 20260504013446 | 65 | 356 | 2.0 | 3.0 | 0.00 | 0.00 | 0.00 | 34 | 1006.3 |
| 20260504012946 | 65 | 349 | 2.0 | 6.0 | 0.00 | 0.00 | 0.00 | 33 | 1006.2 |
| 20260504012446 | 65 | 327 | 2.0 | 4.0 | 0.00 | 0.00 | 0.00 | 33 | 1006.1 |
| 20260504011946 | 66 | 345 | 3.0 | 4.0 | 0.00 | 0.00 | 0.00 | 33 | 1006.1 |
| 20260504011446 | 66 | 337 | 2.0 | 5.0 | 0.00 | 0.00 | 0.00 | 33 | 1006.1 |
| 20260504010946 | 67 | 331 | 2.0 | 4.0 | 0.00 | 0.00 | 0.00 | 33 | 1006.0 |
| 20260504010447 | 68 | 348 | 2.0 | 4.0 | 0.00 | 0.00 | 0.00 | 32 | 1006.0 |
| 20260504005946 | 68 | 12 | 2.0 | 4.0 | 0.00 | 0.00 | 0.00 | 32 | 1006.0 |
| 20260504005447 | 69 | 28 | 2.0 | 5.0 | 0.00 | 0.00 | 0.00 | 32 | 1006.0 |
| 20260504004946 | 70 | 41 | 1.0 | 3.0 | 0.00 | 0.00 | 0.00 | 31 | 1005.9 |
| 20260504004446 | 71 | 4 | 1.0 | 2.0 | 0.00 | 0.00 | 0.00 | 31 | 1005.9 |
| 20260504003946 | 71 | 19 | 1.0 | 2.0 | 0.00 | 0.00 | 0.00 | 30 | 1005.9 |
| 20260504003446 | 72 | 16 | 0.0 | 1.0 | 0.00 | 0.00 | 0.00 | 29 | 1005.9 |
| 20260504002947 | 72 | 298 | 1.0 | 2.0 | 0.00 | 0.00 | 0.00 | 29 | 1005.9 |
| 20260504002446 | 72 | 305 | 2.0 | 3.0 | 0.00 | 0.00 | 0.00 | 28 | 1005.9 |
| 20260504001946 | 73 | 270 | 1.0 | 3.0 | 0.00 | 0.00 | 0.00 | 28 | 1005.8 |
| 20260504001446 | 73 | 338 | 1.0 | 3.0 | 0.00 | 0.00 | 0.00 | 26 | 1005.8 |
| 20260504000946 | 73 | 288 | 2.0 | 5.0 | 0.00 | 0.00 | 0.00 | 26 | 1005.8 |
| 20260504000446 | 74 | 280 | 2.0 | 4.0 | 0.00 | 0.00 | 0.00 | 26 | 1005.8 |
| 20260503235946 | 74 | 233 | 2.0 | 3.0 | 0.00 | 0.00 | 0.00 | 26 | 1005.8 |
| 20260503235446 | 74 | 294 | 1.0 | 3.0 | 0.00 | 0.00 | 0.00 | 26 | 1005.8 |
| 20260503234946 | 74 | 302 | 3.0 | 6.0 | 0.00 | 0.00 | 0.00 | 25 | 1005.8 |
| 20260503234446 | 74 | 304 | 4.0 | 7.0 | 0.00 | 0.00 | 0.00 | 25 | 1005.8 |
| 20260503233946 | 74 | 296 | 4.0 | 10.0 | 0.00 | 0.00 | 0.00 | 25 | 1005.8 |
| 20260503233446 | 74 | 277 | 4.0 | 7.0 | 0.00 | 0.00 | 0.00 | 24 | 1005.7 |
| 20260503232947 | 75 | 304 | 3.0 | 5.0 | 0.00 | 0.00 | 0.00 | 25 | 1005.7 |
| 20260503232448 | 75 | 273 | 4.0 | 6.0 | 0.00 | 0.00 | 0.00 | 24 | 1005.7 |
| 20260503231946 | 75 | 314 | 4.0 | 6.0 | 0.00 | 0.00 | 0.00 | 24 | 1005.7 |
| 20260503231446 | 75 | 321 | 3.0 | 7.0 | 0.00 | 0.00 | 0.00 | 24 | 1005.7 |
| 20260503230946 | 75 | 290 | 4.0 | 6.0 | 0.00 | 0.00 | 0.00 | 25 | 1005.7 |
| 20260503230446 | 75 | 303 | 1.0 | 2.0 | 0.00 | 0.00 | 0.00 | 25 | 1005.7 |
| 20260503225949 | 76 | 295 | 4.0 | 9.0 | 0.00 | 0.00 | 0.00 | 23 | 1005.7 |
| 20260503225446 | 76 | 286 | 3.0 | 7.0 | 0.00 | 0.00 | 0.00 | 24 | 1005.7 |
| 20260503224946 | 76 | 287 | 2.0 | 4.0 | 0.00 | 0.00 | 0.00 | 24 | 1005.6 |
| 20260503224446 | 75 | 303 | 4.0 | 8.0 | 0.00 | 0.00 | 0.00 | 23 | 1005.7 |
| 20260503223947 | 75 | 8 | 4.0 | 7.0 | 0.00 | 0.00 | 0.00 | 23 | 1005.6 |
| 20260503223446 | 76 | 356 | 5.0 | 9.0 | 0.00 | 0.00 | 0.00 | 23 | 1005.7 |
| 20260503222946 | 76 | 291 | 4.0 | 6.0 | 0.00 | 0.00 | 0.00 | 24 | 1005.6 |
| 20260503222446 | 75 | 343 | 4.0 | 5.0 | 0.00 | 0.00 | 0.00 | 24 | 1005.5 |
| 20260503221947 | 75 | 317 | 3.0 | 5.0 | 0.00 | 0.00 | 0.00 | 24 | 1005.5 |
| 20260503221448 | 75 | 355 | 4.0 | 7.0 | 0.00 | 0.00 | 0.00 | 24 | 1005.5 |
| 20260503220946 | 76 | 356 | 5.0 | 8.0 | 0.00 | 0.00 | 0.00 | 23 | 1005.5 |
| 20260503220446 | 76 | 313 | 4.0 | 6.0 | 0.00 | 0.00 | 0.00 | 25 | 1005.5 |
| 20260503215946 | 76 | 339 | 3.0 | 6.0 | 0.00 | 0.00 | 0.00 | 25 | 1005.5 |
| 20260503215446 | 76 | 356 | 4.0 | 8.0 | 0.00 | 0.00 | 0.00 | 24 | 1005.4 |
| 20260503214946 | 75 | 356 | 3.0 | 6.0 | 0.00 | 0.00 | 0.00 | 24 | 1005.4 |
| 20260503214446 | 76 | 347 | 6.0 | 8.0 | 0.00 | 0.00 | 0.00 | 24 | 1005.4 |
| 20260503213946 | 76 | 314 | 4.0 | 7.0 | 0.00 | 0.00 | 0.00 | 25 | 1005.5 |
| 20260503213446 | 76 | 294 | 3.0 | 7.0 | 0.00 | 0.00 | 0.00 | 26 | 1005.4 |
| 20260503212946 | 76 | 341 | 3.0 | 7.0 | 0.00 | 0.00 | 0.00 | 26 | 1005.4 |
| 20260503212446 | 76 | 355 | 2.0 | 4.0 | 0.00 | 0.00 | 0.00 | 27 | 1005.5 |
| 20260503211947 | 76 | 332 | 3.0 | 9.0 | 0.00 | 0.00 | 0.00 | 26 | 1005.5 |
| 20260503211446 | 76 | 311 | 5.0 | 6.0 | 0.00 | 0.00 | 0.00 | 26 | 1005.6 |
| 20260503210946 | 76 | 285 | 3.0 | 5.0 | 0.00 | 0.00 | 0.00 | 27 | 1005.7 |
| 20260503210446 | 76 | 303 | 4.0 | 9.0 | 0.00 | 0.00 | 0.00 | 26 | 1005.6 |
| 20260503205946 | 76 | 334 | 6.0 | 11.0 | 0.00 | 0.00 | 0.00 | 24 | 1005.6 |
| 20260503205446 | 76 | 291 | 3.0 | 6.0 | 0.00 | 0.00 | 0.00 | 26 | 1005.6 |
| 20260503204946 | 76 | 311 | 5.0 | 6.0 | 0.00 | 0.00 | 0.00 | 27 | 1005.7 |
| 20260503204447 | 76 | 307 | 4.0 | 8.0 | 0.00 | 0.00 | 0.00 | 27 | 1005.7 |
| 20260503203947 | 76 | 299 | 4.0 | 6.0 | 0.00 | 0.00 | 0.00 | 27 | 1005.7 |
| 20260503203446 | 76 | 277 | 6.0 | 9.0 | 0.00 | 0.00 | 0.00 | 27 | 1005.8 |
| 20260503202946 | 76 | 345 | 3.0 | 5.0 | 0.00 | 0.00 | 0.00 | 28 | 1005.8 |
| 20260503202446 | 76 | 344 | 3.0 | 6.0 | 0.00 | 0.00 | 0.00 | 29 | 1005.9 |
| 20260503201946 | 76 | 320 | 4.0 | 7.0 | 0.00 | 0.00 | 0.00 | 27 | 1005.9 |
| 20260503201446 | 76 | 328 | 3.0 | 5.0 | 0.00 | 0.00 | 0.00 | 27 | 1005.9 |
| 20260503200946 | 75 | 318 | 4.0 | 7.0 | 0.00 | 0.00 | 0.00 | 29 | 1005.9 |
| 20260503200446 | 76 | 351 | 2.0 | 5.0 | 0.00 | 0.00 | 0.00 | 29 | 1005.8 |
| 20260503195946 | 76 | 289 | 2.0 | 4.0 | 0.00 | 0.00 | 0.00 | 29 | 1005.9 |
| 20260503195447 | 76 | 298 | 5.0 | 8.0 | 0.00 | 0.00 | 0.00 | 28 | 1005.9 |
| 20260503194946 | 75 | 3 | 3.0 | 6.0 | 0.00 | 0.00 | 0.00 | 32 | 1005.9 |
| 20260503194446 | 75 | 290 | 5.0 | 8.0 | 0.00 | 0.00 | 0.00 | 28 | 1006.0 |
| 20260503193946 | 75 | 299 | 4.0 | 7.0 | 0.00 | 0.00 | 0.00 | 29 | 1005.8 |
| 20260503193447 | 75 | 330 | 5.0 | 9.0 | 0.00 | 0.00 | 0.00 | 28 | 1005.9 |
| 20260503192947 | 75 | 302 | 5.0 | 8.0 | 0.00 | 0.00 | 0.00 | 29 | 1005.9 |
| 20260503192446 | 75 | 284 | 4.0 | 7.0 | 0.00 | 0.00 | 0.00 | 29 | 1005.9 |
| 20260503191946 | 74 | 316 | 4.0 | 8.0 | 0.00 | 0.00 | 0.00 | 29 | 1005.9 |
| 20260503191446 | 75 | 350 | 6.0 | 9.0 | 0.00 | 0.00 | 0.00 | 31 | 1005.8 |
| 20260503190947 | 75 | 306 | 6.0 | 11.0 | 0.00 | 0.00 | 0.00 | 29 | 1006.0 |
| 20260503190446 | 74 | 337 | 4.0 | 6.0 | 0.00 | 0.00 | 0.00 | 31 | 1005.9 |
| 20260503185946 | 75 | 325 | 4.0 | 9.0 | 0.00 | 0.00 | 0.00 | 32 | 1006.1 |
| 20260503185447 | 75 | 311 | 5.0 | 10.0 | 0.00 | 0.00 | 0.00 | 31 | 1005.9 |
| 20260503184946 | 75 | 326 | 5.0 | 9.0 | 0.00 | 0.00 | 0.00 | 30 | 1006.0 |
| 20260503184447 | 75 | 304 | 7.0 | 10.0 | 0.00 | 0.00 | 0.00 | 29 | 1005.9 |
| 20260503183946 | 75 | 314 | 6.0 | 9.0 | 0.00 | 0.00 | 0.00 | 29 | 1006.0 |
| 20260503183446 | 74 | 318 | 4.0 | 9.0 | 0.00 | 0.00 | 0.00 | 30 | 1005.9 |
| 20260503182947 | 74 | 295 | 3.0 | 5.0 | 0.00 | 0.00 | 0.00 | 31 | 1006.1 |
| 20260503182447 | 74 | 307 | 6.0 | 9.0 | 0.00 | 0.00 | 0.00 | 30 | 1006.1 |
| 20260503181946 | 74 | 269 | 5.0 | 13.0 | 0.00 | 0.00 | 0.00 | 30 | 1006.1 |
| 20260503181447 | 74 | 321 | 2.0 | 6.0 | 0.00 | 0.00 | 0.00 | 31 | 1006.2 |
| 20260503180948 | 74 | 299 | 2.0 | 6.0 | 0.00 | 0.00 | 0.00 | 32 | 1006.1 |
| 20260503180447 | 73 | 255 | 3.0 | 5.0 | 0.00 | 0.00 | 0.00 | 33 | 1006.2 |
| 20260503175946 | 73 | 257 | 6.0 | 9.0 | 0.00 | 0.00 | 0.00 | 32 | 1006.3 |
| 20260503175446 | 73 | 267 | 4.0 | 6.0 | 0.00 | 0.00 | 0.00 | 34 | 1006.4 |
| 20260503174947 | 72 | 307 | 5.0 | 8.0 | 0.00 | 0.00 | 0.00 | 33 | 1006.5 |
| 20260503174446 | 72 | 259 | 7.0 | 12.0 | 0.00 | 0.00 | 0.00 | 33 | 1006.5 |
| 20260503173946 | 72 | 266 | 4.0 | 6.0 | 0.00 | 0.00 | 0.00 | 34 | 1006.6 |
| 20260503173447 | 72 | 275 | 5.0 | 10.0 | 0.00 | 0.00 | 0.00 | 35 | 1006.6 |
| 20260503172947 | 71 | 275 | 4.0 | 9.0 | 0.00 | 0.00 | 0.00 | 35 | 1006.7 |
| 20260503172447 | 71 | 279 | 4.0 | 7.0 | 0.00 | 0.00 | 0.00 | 35 | 1006.9 |
| 20260503171947 | 71 | 258 | 5.0 | 9.0 | 0.00 | 0.00 | 0.00 | 36 | 1006.9 |
| 20260503171446 | 70 | 274 | 6.0 | 9.0 | 0.00 | 0.00 | 0.00 | 35 | 1007.0 |
| 20260503170947 | 70 | 249 | 5.0 | 9.0 | 0.00 | 0.00 | 0.00 | 35 | 1006.9 |
| 20260503170446 | 69 | 268 | 6.0 | 9.0 | 0.00 | 0.00 | 0.00 | 36 | 1007.1 |
| 20260503150947 | 62 | 187 | 4.0 | 7.0 | 0.00 | 0.00 | 0.00 | 41 | 1007.7 |
| 20260503150447 | 61 | 266 | 4.0 | 9.0 | 0.00 | 0.00 | 0.00 | 41 | 1007.8 |
| 20260503130946 | 54 | 172 | 3.0 | 5.0 | 0.00 | 0.00 | 0.00 | 48 | 1009.3 |
| 20260503130448 | 54 | 168 | 3.0 | 5.0 | 0.00 | 0.00 | 0.00 | 48 | 1009.3 |
| 20260503110446 | 53 | 127 | 3.0 | 5.0 | 0.00 | 0.00 | 0.00 | 50 | 1010.0 |
| 20260503090446 | 53 | 148 | 2.0 | 4.0 | 0.00 | 0.00 | 0.00 | 45 | 1011.8 |
| 20260503081446 | 52 | 171 | 2.0 | 3.0 | 0.00 | 0.00 | 0.00 | 48 | 1012.6 |
| 20260503080947 | 52 | 168 | 4.0 | 5.0 | 0.00 | 0.00 | 0.00 | 48 | 1012.4 |
| 20260503080446 | 52 | 174 | 3.0 | 4.0 | 0.00 | 0.00 | 0.00 | 49 | 1012.4 |
| 20260503072446 | 52 | 179 | 2.0 | 4.0 | 0.00 | 0.00 | 0.00 | 49 | 1013.0 |
| 20260503071946 | 52 | 176 | 2.0 | 4.0 | 0.00 | 0.00 | 0.00 | 48 | 1013.0 |
| 20260503071448 | 52 | 178 | 3.0 | 5.0 | 0.00 | 0.00 | 0.00 | 49 | 1013.0 |
| 20260503070946 | 52 | 198 | 2.0 | 3.0 | 0.00 | 0.00 | 0.00 | 50 | 1013.0 |
| 20260503070447 | 52 | 217 | 2.0 | 3.0 | 0.00 | 0.00 | 0.00 | 48 | 1013.1 |
| 20260503054946 | 51 | 193 | 3.0 | 4.0 | 0.00 | 0.00 | 0.00 | 47 | 1013.2 |
| 20260503054448 | 51 | 189 | 4.0 | 5.0 | 0.00 | 0.00 | 0.00 | 48 | 1013.2 |
| 20260503053946 | 51 | 179 | 4.0 | 5.0 | 0.00 | 0.00 | 0.00 | 47 | 1013.2 |
| 20260503053446 | 51 | 180 | 3.0 | 4.0 | 0.00 | 0.00 | 0.00 | 48 | 1013.3 |
| 20260503052947 | 51 | 179 | 4.0 | 6.0 | 0.00 | 0.00 | 0.00 | 48 | 1013.3 |
| 20260503052447 | 51 | 176 | 2.0 | 4.0 | 0.00 | 0.00 | 0.00 | 49 | 1013.4 |
| 20260503051946 | 51 | 177 | 2.0 | 4.0 | 0.00 | 0.00 | 0.00 | 48 | 1013.5 |